This demonstration page uses our WeatherBlox Daily Observations layout. Learn more.

Hourly Observations for December 13, 2017

Temp ( °F °C ) Dew Point ( °F °C ) Humidity (%) Winds ( mph kmh ) Pressure ( in mb ) Visibility ( mi km ) Precip ( " mm )
12:54 am 00:54 Clear 32 0 23 -5 69 69 S 7 11 29.77 1008 10 16.0934 0 0
1:54 am 01:54 Clear 35 1.7 23 -5 61 61 SSE 3 6 29.73 1007 10 16.0934 0 0
2:54 am 02:54 Clear 33 0.6 21 -6.1 61 61 Calm 29.72 1007 10 16.0934 0 0
3:54 am 03:54 Clear 35 1.7 21 -6.1 57 57 Calm 29.71 1006 10 16.0934 0 0
4:54 am 04:54 Clear 49 9.4 21 -6.1 33 33 WNW 17 28 29.71 1006 10 16.0934 0 0
5:54 am 05:54 Mostly Clear 51 10.6 21 -6.1 31 31 WNW 16 26 29.71 1006 10 16.0934 0 0
6:54 am 06:54 Clear 52 11.1 22 -5.6 31 31 W 18 30 29.73 1007 10 16.0934 0 0
7:54 am 07:54 Sunny 52 11.1 23 -5 32 32 NW 23 37 29.75 1008 10 16.0934 0 0
8:54 am 08:54 Sunny 51 10.6 24 -4.4 35 35 NW 18 30 29.81 1009 10 16.0934 0 0
9:54 am 09:54 Sunny 52 11.1 26 -3.3 37 37 WNW 25 41 29.82 1010 10 16.0934 0 0
10:54 am 10:54 Sunny 52 11.1 26 -3.3 37 37 NW 25 41 29.85 1011 10 16.0934 0 0
11:54 am 11:54 Sunny 53 11.7 27 -2.8 37 37 NW 26 43 29.85 1011 10 16.0934 0 0
12:54 pm 12:54 Sunny 54 12.2 28 -2.2 37 37 NW 26 43 29.84 1010 10 16.0934 0 0
1:54 pm 13:54 Sunny 54 12.2 28 -2.2 37 37 NW 25 41 29.84 1011 10 16.0934 0 0
2:54 pm 14:54 Sunny 53 11.7 28 -2.2 38 38 NNW 23 37 29.86 1011 10 16.0934 0 0
3:54 pm 15:54 Sunny 51 10.6 27 -2.8 39 39 NNW 24 39 29.86 1011 10 16.0934 0 0
4:54 pm 16:54 Sunny 48 8.9 28 -2.2 46 46 NNW 14 22 29.88 1012 10 16.0934 0 0
5:54 pm 17:54 Clear 43 6.1 27 -2.8 53 53 N 9 15 29.91 1013 10 16.0934 0 0
6:54 pm 18:54 Clear 38 3.3 28 -2.2 68 68 N 13 20 29.95 1014 10 16.0934 0 0
7:54 pm 19:54 Clear 39 3.9 27 -2.8 62 62 N 8 13 29.97 1015 10 16.0934 0 0
8:54 pm 20:54 Clear 37 2.8 27 -2.8 67 67 NNW 8 13 30 1016 10 16.0934 0 0
9:54 pm 21:54 Cloudy 38 3.3 27 -2.8 65 65 NNW 7 11 30.01 1016 10 16.0934 0 0
10:54 pm 22:54 Cloudy 39 3.9 25 -3.9 57 57 N 18 30 30.03 1017 10 16.0934 0 0
11:54 pm 23:54 Cloudy 39 3.9 25 -3.9 57 57 N 14 22 30.04 1017 10 16.0934 0 0

Powered by AerisWeather